Location: Esp�n
(42.4593°N, 0.2047°W)
Time: 04:16:03
(UTC+00:00)

NOSS 3-1 (A) - Pass Details

Date: 07 June 2020
Orbit: 755 x 1458 km, 63.4° (Epoch: 16 June)

Event Time Altitude Azimuth Distance (km) Brightness Sun altitude
Rises 03:06:42 0° 319° (NW) 4,058 6.8 -11.8°
Reaches altitude 10° 03:09:23 10° 314° (NW) 3,186 6.2 -11.5°
Maximum altitude 03:16:48 47° 244° (WSW) 1,722 4.4 -10.5°
Drops below altitude 10° 03:25:03 10° 174° (S) 3,537 6.1 -9.4°
Sets 03:28:12 0° 169° (SSE) 4,538 6.7 -9.0°
